Location: Peterborough
(44.3091°N, 78.3197°W)
Time: 16:20:31
(UTC-04:00)

Explorer 7 - Pass Details

Date: 24 March 2023
Orbit: 477 x 653 km, 50.3° (Epoch: 04 June)

Event Time Altitude Azimuth Distance (km) Brightness Sun altitude
Rises 19:45:17 0° 262° (W) 2,859 12.5 -3.5°
Reaches altitude 10° 19:47:42 10° 268° (W) 1,926 11.5 -3.9°
Maximum altitude 19:51:57 47° 343° (NNW) 755 7.7 -4.7°
Drops below altitude 10° 19:55:59 10° 59° (ENE) 1,816 9.0 -5.4°
Enters shadow 19:57:37 - 64° (ENE) 2,443 9.6 -5.7°
Sets 19:58:13 0° 65° (ENE) 2,677 - -5.8°
